Wind_Speed
39 39 38 38 39 38 34 30 30 31 31 31 31 31 31 30 31 31 29 27 27 27 28 27 26 25 23 22 21 20 19 17 16 15 14 13 12 12 11 11 11 11 10 10 11 11 11 11 11
42 42 42 42 42 39 34 31 32 32 33 33 34 33 33 31 30 30 29 28 28 28 28 28 27 26 25 24 23 21 20 19 17 16 15 14 14 13 13 12 12 12 11 11 12 12 12 12 13
45 45 45 45 44 39 34 32 34 35 35 35 35 35 34 33 31 30 29 29 29 29 28 29 29 28 27 25 24 23 22 20 19 18 17 15 15 14 14 13 13 13 13 13 12 12 12 13 13
48 48 49 49 45 39 36 36 37 37 38 37 36 36 35 34 32 31 30 30 30 30 29 29 30 29 28 27 25 24 23 21 20 19 18 16 16 15 15 14 14 14 13 13 13 13 13 14 14
50 52 53 51 45 40 38 38 40 40 39 38 38 37 36 35 34 32 31 31 31 31 31 30 30 30 29 28 27 26 24 22 21 20 19 18 17 16 16 15 15 14 14 14 14 14 14 15 15
53 54 55 52 46 42 41 41 42 42 42 41 40 39 37 36 35 33 33 32 33 32 32 31 30 30 30 29 28 27 25 24 22 21 20 19 18 17 17 16 16 15 15 15 15 15 15 15 16
54 55 55 52 48 45 43 43 44 44 44 43 42 41 39 37 36 35 34 33 33 33 33 32 31 31 30 29 29 28 27 25 24 22 21 20 19 19 18 17 16 16 16 16 16 16 16 16 16
55 57 57 53 50 46 44 46 46 46 46 45 44 42 40 38 37 37 36 35 34 34 33 33 32 31 31 30 30 29 28 26 25 24 22 21 20 20 19 18 17 17 17 16 16 16 16 16 17
56 59 57 52 49 46 46 48 48 48 48 47 46 44 41 41 39 38 37 36 35 34 33 33 32 32 31 31 30 30 29 27 26 24 23 22 21 20 19 19 18 17 17 17 17 17 17 17 18
57 59 53 50 49 48 49 50 50 50 50 48 47 46 44 42 41 39 38 36 35 35 34 33 33 32 32 32 31 30 29 27 26 25 24 22 21 21 20 19 19 18 18 18 17 17 17 18 18
57 55 51 51 51 51 51 52 52 52 51 49 48 47 46 44 43 41 39 37 37 36 35 34 34 33 32 32 32 31 29 28 27 26 24 23 22 21 21 20 20 19 19 18 18 18 18 18 19
56 54 53 52 53 53 53 54 54 54 52 51 50 49 49 47 44 43 41 39 38 37 36 35 34 34 33 32 32 31 30 29 28 27 25 24 23 22 22 21 20 20 20 19 19 19 19 19 20
54 53 53 53 54 54 54 55 55 55 53 52 52 51 50 48 46 44 43 42 40 38 37 35 35 35 34 33 32 31 31 30 29 28 26 25 24 24 23 22 21 21 20 19 20 20 20 20 20
51 51 53 53 54 54 55 56 56 54 53 54 54 53 51 50 48 46 45 43 41 39 37 36 36 36 35 34 33 32 31 31 30 29 27 25 25 25 24 23 22 21 20 20 21 21 21 20 21
48 50 52 53 53 53 55 58 56 53 54 55 55 54 52 51 50 48 46 44 42 40 39 38 37 37 36 36 35 33 32 31 31 30 28 27 26 25 24 23 23 22 21 21 21 21 21 21 22
46 48 50 50 53 53 56 57 53 53 55 55 55 55 54 53 51 49 47 46 44 42 40 39 38 37 37 36 35 34 33 32 32 30 29 28 27 26 25 24 23 23 22 22 22 22 22 22 22
44 46 47 47 50 53 56 56 53 54 55 56 55 56 55 54 52 51 49 48 46 44 42 40 39 38 38 37 36 35 34 33 32 31 30 29 27 26 25 24 24 23 23 23 23 22 23 23 23
42 44 46 46 48 52 55 55 54 54 56 57 56 56 56 55 54 52 50 49 48 46 44 42 41 40 39 38 37 36 35 34 32 31 30 29 28 27 25 24 24 24 23 23 23 23 23 23 24
41 44 45 45 47 51 54 55 55 55 55 57 58 58 57 56 55 53 52 51 50 48 46 44 42 41 40 39 37 36 35 34 32 31 31 29 28 27 26 25 25 24 24 23 24 24 24 25 25
40 43 45 45 46 50 54 56 55 57 56 56 58 59 58 57 57 56 53 52 51 50 48 46 45 42 41 39 38 37 36 35 34 33 31 30 29 28 28 27 26 25 25 24 25 25 26 26 27
40 41 43 45 46 49 52 56 55 56 57 57 58 59 59 58 58 57 55 54 52 51 50 48 46 44 42 41 40 39 38 36 34 33 32 31 30 30 29 28 27 26 26 26 26 27 27 28 29
39 39 42 44 47 49 50 55 54 54 56 56 57 58 59 58 58 57 56 55 53 52 51 49 47 45 44 43 42 40 38 36 34 34 33 32 31 30 30 29 28 27 27 27 28 29 29 29 29
36 38 41 43 45 49 50 54 53 52 55 55 55 56 58 58 58 57 57 55 54 53 52 51 49 47 46 45 43 41 39 37 36 35 34 33 32 31 30 30 29 29 29 29 29 29 30 30 30
35 36 40 42 44 49 47 51 54 51 51 52 54 55 56 58 58 57 57 57 55 54 53 52 51 49 48 46 44 43 40 39 38 36 35 34 33 32 31 31 30 29 29 30 30 30 30 31 32
35 35 38 41 44 47 44 49 51 48 47 49 51 53 55 56 58 58 58 58 57 55 54 53 52 51 49 47 46 44 42 41 39 38 37 35 34 33 32 32 31 30 30 31 31 31 31 32 32
33 35 36 39 42 44 44 47 47 46 46 48 49 52 55 56 58 59 58 58 58 56 54 54 53 51 49 48 46 44 43 42 41 39 38 36 35 34 34 33 32 31 31 31 31 31 32 33 33
31 32 33 36 39 41 44 45 44 43 45 46 49 51 54 56 57 58 59 59 59 58 56 54 53 52 50 48 47 46 44 43 41 40 39 38 37 36 35 34 34 33 32 32 32 32 33 33 34
30 30 32 34 37 39 42 43 42 41 42 44 47 49 51 54 56 57 58 59 59 58 57 55 54 52 50 49 48 47 45 44 42 41 40 39 38 37 36 36 35 34 33 33 33 33 34 34 34
28 30 31 33 36 38 41 42 38 37 39 42 44 47 49 52 55 56 56 56 58 58 57 56 55 53 51 50 48 47 45 44 43 42 40 39 39 38 37 37 35 35 34 34 34 34 35 35 35
29 30 31 32 34 37 39 40 36 35 36 38 41 44 47 50 53 54 55 56 57 58 57 56 55 54 52 51 49 48 46 45 44 43 42 40 39 39 38 38 37 36 35 35 35 35 35 36 36
Wind_Direction
257 254 252 250 249 247 246 244 242 240 238 235 234 234 234 234 234 235 235 232 230 228 227 227 226 225 225 225 227 228 228 229 231 234 237 239 242 248 254 258 263 270 276 280 284 290 294 298 301
255 254 251 249 248 247 245 244 242 239 237 235 234 234 234 234 234 234 234 232 230 228 226 227 227 226 225 225 227 227 228 229 231 233 236 240 243 249 254 257 262 269 274 278 283 288 293 297 299
254 253 251 249 247 247 245 242 240 238 236 235 234 234 234 234 234 233 233 232 231 228 226 225 226 226 226 226 227 227 228 230 231 232 235 240 245 249 254 256 260 267 272 276 281 286 291 295 298
253 252 250 249 247 245 242 241 239 238 236 235 235 235 234 234 234 234 233 232 230 228 226 225 225 226 226 227 227 228 228 229 230 232 235 240 244 248 252 256 260 266 269 273 278 284 289 292 296
253 251 250 249 247 243 240 239 239 238 236 235 235 235 234 232 232 233 233 231 229 227 226 226 225 225 226 226 227 228 227 228 230 233 236 240 243 247 251 255 260 262 266 272 278 283 288 291 294
252 251 249 249 246 242 238 236 237 238 236 234 234 233 233 232 231 231 232 230 229 227 226 225 225 225 225 225 226 227 227 228 231 234 236 240 243 246 250 254 257 261 266 272 278 283 287 290 294
252 251 249 248 244 240 237 236 236 236 236 234 234 232 231 231 231 230 230 230 228 228 227 225 225 225 225 224 225 226 227 229 231 233 236 239 243 246 249 251 256 260 265 271 277 282 286 290 293
252 250 248 246 244 240 237 236 235 235 235 234 233 232 230 230 230 229 228 228 228 228 228 226 225 225 225 224 224 225 226 228 230 232 235 239 241 244 246 250 254 259 265 270 276 281 285 289 292
250 249 246 245 244 240 236 235 234 234 233 233 232 231 229 229 228 227 227 227 228 227 226 225 225 225 224 224 224 224 226 228 230 232 235 238 240 243 245 249 253 258 263 269 274 280 284 289 292
249 249 248 245 243 238 235 234 232 232 231 232 231 230 229 229 228 227 226 226 227 226 225 225 225 224 224 223 222 223 224 226 229 231 234 237 240 242 244 249 252 257 263 268 273 279 285 288 291
249 248 246 242 240 237 234 232 231 231 230 230 231 230 228 228 227 226 225 225 225 225 225 224 224 223 223 222 221 222 223 225 227 230 233 236 239 241 244 248 253 258 263 268 273 279 284 287 291
248 246 244 241 238 236 234 231 230 230 229 229 230 229 227 227 226 225 224 224 224 223 223 223 223 222 221 221 221 222 223 224 227 229 233 236 239 241 244 249 254 259 263 267 272 279 284 286 290
248 244 242 239 237 236 234 232 230 229 228 228 229 228 227 226 225 224 223 222 222 222 222 222 221 221 220 221 221 222 223 225 227 229 233 236 239 242 246 250 254 259 263 267 272 278 282 285 290
248 245 241 238 236 235 234 232 230 228 228 228 227 228 227 226 225 224 222 221 221 220 221 221 221 221 221 221 221 222 223 225 228 230 233 237 241 244 248 251 255 260 263 267 273 278 281 285 289
246 244 240 237 235 234 234 232 229 227 227 227 227 226 226 225 224 224 222 220 220 219 220 220 221 221 221 221 221 222 224 226 228 231 234 237 242 245 249 252 256 259 263 268 273 277 280 284 289
245 242 239 235 234 233 234 232 227 227 227 226 226 226 225 224 223 223 222 220 219 219 219 220 221 222 222 222 222 223 225 227 229 232 235 238 242 246 249 251 255 257 262 268 273 276 280 284 289
244 242 239 234 233 232 233 231 226 227 226 225 224 225 224 223 222 222 221 220 219 219 219 220 220 221 222 222 222 224 226 228 230 232 235 238 242 246 249 251 254 258 262 268 272 276 280 284 288
244 241 238 234 232 232 232 231 226 226 226 224 222 223 223 222 222 221 221 220 219 218 219 219 220 221 221 222 222 224 226 228 230 232 234 237 241 245 248 250 254 259 263 268 271 275 280 284 288
245 241 238 234 233 233 232 230 227 226 226 224 221 221 222 222 221 221 220 220 219 218 218 219 220 220 222 223 223 225 227 229 231 232 234 237 240 244 248 250 253 258 263 267 271 275 280 284 288
243 241 238 235 234 235 233 230 227 226 226 224 222 220 221 221 221 220 220 219 219 219 218 219 220 220 222 223 223 224 226 228 229 232 234 237 240 244 248 250 254 259 263 266 270 275 280 285 288
243 242 240 238 235 236 236 232 228 227 226 225 223 221 220 221 221 220 220 220 219 219 219 219 220 221 222 223 223 224 226 228 230 233 235 238 241 245 247 251 255 260 263 267 271 275 280 284 287
244 243 243 240 239 236 235 235 227 227 226 225 223 221 221 221 221 221 220 220 219 219 219 219 220 221 222 223 223 225 227 229 232 234 236 238 241 244 247 252 256 260 264 267 272 276 280 284 286
245 243 243 242 242 239 234 237 228 226 226 224 223 222 222 222 221 221 221 221 220 219 219 219 220 221 222 223 223 225 227 228 231 234 236 239 241 244 247 251 256 260 264 268 272 276 279 283 286
245 244 243 242 242 241 235 239 232 225 225 225 224 223 222 222 221 221 221 221 221 220 218 218 219 221 222 223 224 226 228 230 232 235 238 240 242 244 248 252 256 260 265 269 272 275 278 282 285
243 241 242 241 241 240 236 239 235 226 225 225 224 224 224 223 221 220 220 220 221 221 220 219 220 221 223 224 226 227 229 231 233 235 238 240 242 245 249 252 255 260 265 268 272 274 277 281 284
241 240 240 242 242 241 238 239 234 229 226 225 224 223 223 222 221 220 219 219 220 221 221 221 221 222 223 225 226 228 229 231 234 236 238 240 242 245 249 252 255 260 265 268 271 274 277 280 283
240 241 241 242 243 243 240 237 233 229 227 224 223 223 222 221 220 219 219 219 220 220 220 221 221 222 223 225 227 228 230 232 234 237 240 241 243 245 249 252 255 259 264 267 271 274 277 280 282
242 241 239 240 242 245 242 236 233 231 228 225 223 222 222 222 220 218 218 219 220 220 221 221 221 222 224 225 227 229 231 233 235 237 240 242 244 246 249 252 255 259 264 267 271 274 277 279 281
237 238 238 240 242 245 245 238 234 234 229 225 223 221 220 220 220 219 217 218 219 220 221 222 222 222 223 225 227 229 231 233 235 236 239 242 245 247 249 252 256 260 263 267 271 274 276 278 280
237 236 237 239 241 243 246 239 232 234 229 225 223 221 220 220 219 219 218 218 218 219 221 222 222 223 223 225 227 229 231 233 235 236 238 241 244 247 250 253 256 260 263 267 270 273 275 277 280
Height
5804 5805 5806 5808 5810 5811 5815 5820 5822 5823 5824 5826 5827 5828 5830 5833 5836 5840 5841 5843 5845 5848 5850 5852 5855 5858 5860 5862 5864 5866 5868 5869 5871 5872 5874 5875 5876 5876 5877 5877 5877 5877 5877 5877 5876 5876 5875 5875 5874
5795 5797 5798 5799 5801 5804 5810 5814 5815 5816 5817 5819 5821 5823 5825 5827 5830 5833 5835 5838 5840 5843 5846 5849 5851 5854 5856 5859 5861 5863 5865 5867 5869 5870 5871 5873 5874 5874 5875 5875 5875 5875 5875 5875 5874 5874 5873 5873 5872
5785 5787 5789 5789 5792 5798 5804 5807 5807 5809 5810 5812 5814 5816 5819 5822 5825 5828 5830 5833 5836 5839 5842 5844 5847 5850 5853 5855 5858 5860 5862 5864 5866 5867 5869 5870 5871 5872 5873 5873 5873 5873 5873 5873 5872 5872 5871 5871 5870
5775 5776 5778 5780 5785 5792 5796 5798 5798 5800 5803 5805 5808 5810 5814 5817 5820 5822 5825 5828 5831 5834 5837 5840 5843 5845 5848 5851 5854 5856 5859 5861 5863 5865 5866 5868 5869 5870 5870 5871 5871 5871 5871 5870 5870 5870 5869 5868 5868
5763 5764 5766 5769 5776 5784 5787 5789 5789 5791 5795 5798 5800 5803 5807 5811 5814 5816 5819 5822 5825 5828 5831 5835 5838 5841 5844 5847 5850 5853 5855 5857 5860 5861 5863 5865 5866 5867 5868 5868 5868 5869 5868 5868 5867 5867 5867 5866 5865
5751 5752 5754 5759 5768 5774 5777 5780 5780 5783 5786 5790 5792 5796 5800 5804 5807 5810 5813 5816 5819 5822 5826 5829 5832 5836 5839 5842 5845 5848 5851 5854 5856 5858 5860 5861 5863 5864 5865 5865 5865 5866 5866 5865 5865 5864 5864 5863 5862
5739 5740 5742 5749 5756 5762 5768 5769 5771 5774 5777 5782 5785 5788 5792 5797 5801 5804 5806 5809 5813 5816 5820 5823 5827 5830 5834 5837 5841 5844 5847 5850 5852 5854 5856 5858 5859 5860 5861 5862 5862 5862 5862 5862 5862 5861 5861 5860 5859
5725 5726 5730 5737 5744 5752 5758 5759 5762 5764 5768 5772 5775 5780 5785 5789 5793 5796 5800 5803 5807 5810 5814 5818 5822 5825 5829 5832 5836 5839 5842 5845 5848 5850 5852 5854 5856 5857 5858 5858 5859 5859 5859 5859 5859 5858 5858 5857 5856
5710 5712 5718 5728 5734 5742 5745 5747 5751 5753 5758 5762 5767 5772 5777 5780 5785 5789 5793 5797 5800 5804 5808 5812 5816 5820 5823 5827 5831 5834 5838 5841 5844 5846 5848 5850 5852 5853 5854 5855 5855 5856 5856 5856 5855 5855 5854 5853 5852
5695 5698 5710 5719 5722 5727 5730 5734 5739 5742 5747 5753 5758 5763 5767 5772 5777 5782 5787 5791 5794 5798 5802 5806 5810 5814 5818 5822 5825 5829 5833 5836 5839 5842 5844 5846 5847 5849 5850 5851 5851 5852 5852 5852 5852 5851 5851 5850 5849
5682 5689 5699 5703 5707 5711 5716 5721 5726 5730 5737 5743 5748 5754 5758 5763 5769 5774 5779 5784 5788 5792 5796 5800 5804 5808 5812 5816 5820 5824 5828 5831 5834 5837 5839 5841 5843 5844 5846 5847 5848 5848 5848 5848 5848 5847 5847 5846 5845
5669 5677 5683 5688 5692 5697 5703 5708 5713 5719 5728 5733 5737 5743 5748 5754 5760 5766 5772 5776 5781 5785 5790 5794 5798 5802 5807 5811 5815 5819 5823 5826 5829 5832 5834 5837 5838 5840 5841 5843 5843 5844 5844 5844 5844 5843 5843 5842 5840
5655 5664 5668 5673 5678 5683 5689 5694 5701 5708 5717 5722 5726 5732 5739 5745 5751 5757 5763 5768 5773 5778 5783 5787 5792 5796 5801 5805 5810 5814 5817 5821 5824 5827 5830 5832 5834 5835 5837 5838 5839 5839 5840 5840 5839 5839 5838 5837 5836
5644 5648 5654 5659 5664 5670 5675 5682 5687 5700 5706 5710 5716 5722 5729 5735 5742 5748 5754 5760 5766 5772 5776 5781 5786 5790 5795 5800 5804 5808 5812 5815 5819 5822 5825 5827 5829 5831 5832 5833 5834 5835 5835 5835 5835 5834 5834 5833 5832
5630 5634 5639 5646 5652 5658 5661 5666 5678 5691 5693 5698 5705 5712 5719 5725 5732 5739 5746 5752 5758 5764 5769 5774 5779 5784 5789 5793 5798 5802 5806 5810 5813 5816 5819 5822 5824 5825 5827 5828 5829 5830 5830 5830 5830 5830 5829 5828 5827
5617 5620 5626 5636 5640 5644 5647 5655 5671 5675 5679 5686 5694 5701 5708 5715 5722 5730 5737 5744 5750 5756 5762 5767 5772 5778 5782 5787 5792 5796 5800 5804 5807 5811 5814 5816 5818 5820 5822 5823 5824 5825 5825 5825 5825 5825 5824 5823 5822
5605 5609 5616 5624 5627 5631 5633 5644 5657 5661 5666 5674 5682 5689 5697 5705 5713 5720 5727 5735 5742 5748 5755 5760 5766 5771 5776 5781 5785 5790 5794 5798 5801 5805 5808 5811 5813 5815 5816 5817 5818 5819 5820 5820 5820 5820 5819 5818 5817
5596 5600 5605 5611 5616 5618 5621 5631 5642 5647 5653 5662 5670 5678 5685 5694 5703 5711 5718 5725 5733 5740 5746 5752 5758 5764 5769 5774 5779 5783 5787 5791 5795 5799 5802 5805 5807 5809 5810 5812 5813 5814 5814 5815 5814 5814 5814 5813 5811
5585 5588 5593 5600 5603 5605 5610 5617 5626 5634 5640 5649 5658 5666 5675 5684 5693 5701 5708 5715 5723 5730 5738 5744 5751 5756 5762 5767 5773 5777 5782 5786 5789 5793 5796 5799 5801 5803 5805 5806 5807 5808 5809 5809 5809 5809 5808 5807 5806
5573 5577 5582 5588 5591 5593 5598 5604 5612 5620 5628 5638 5647 5655 5665 5673 5681 5690 5698 5705 5713 5721 5729 5736 5743 5749 5755 5761 5766 5771 5775 5778 5782 5786 5789 5792 5795 5797 5799 5800 5801 5802 5803 5803 5804 5803 5802 5801 5800
5563 5568 5573 5576 5580 5581 5585 5591 5600 5610 5617 5626 5635 5645 5654 5663 5672 5680 5688 5696 5704 5712 5720 5728 5734 5741 5747 5753 5758 5763 5767 5771 5776 5780 5783 5786 5789 5791 5793 5794 5795 5796 5797 5797 5798 5797 5796 5795 5794
5554 5559 5561 5564 5567 5571 5575 5578 5590 5598 5606 5615 5625 5635 5644 5653 5662 5670 5678 5686 5695 5704 5711 5719 5726 5732 5738 5744 5750 5756 5761 5766 5770 5774 5777 5779 5782 5784 5786 5788 5789 5790 5791 5791 5791 5791 5790 5789 5788
5545 5548 5550 5553 5555 5559 5564 5566 5577 5586 5594 5605 5616 5625 5634 5643 5652 5660 5669 5677 5686 5694 5701 5709 5716 5722 5729 5736 5742 5748 5754 5759 5762 5766 5769 5772 5775 5778 5780 5781 5783 5784 5784 5785 5785 5784 5783 5782 5781
5535 5538 5540 5542 5543 5546 5555 5556 5563 5577 5587 5597 5606 5614 5623 5632 5641 5650 5659 5666 5674 5682 5691 5698 5706 5713 5720 5727 5734 5740 5746 5750 5754 5758 5762 5765 5768 5771 5773 5775 5776 5777 5778 5778 5778 5777 5776 5775 5774
5525 5528 5530 5531 5532 5537 5546 5545 5555 5570 5579 5586 5594 5603 5611 5619 5628 5637 5646 5655 5663 5671 5680 5689 5697 5704 5711 5718 5725 5732 5737 5742 5746 5751 5755 5758 5761 5764 5766 5768 5769 5770 5771 5771 5771 5771 5770 5768 5767
5517 5519 5522 5523 5525 5531 5535 5536 5550 5560 5567 5573 5581 5589 5597 5605 5615 5625 5635 5644 5652 5661 5670 5679 5687 5695 5702 5709 5716 5723 5728 5733 5738 5743 5747 5750 5753 5756 5758 5760 5762 5763 5763 5763 5763 5763 5762 5761 5759
5508 5510 5514 5516 5517 5520 5523 5531 5540 5547 5555 5562 5569 5577 5585 5594 5603 5613 5623 5632 5641 5650 5660 5669 5677 5685 5693 5700 5707 5713 5719 5724 5730 5734 5738 5742 5745 5748 5750 5752 5754 5755 5756 5756 5756 5756 5755 5753 5752
5501 5503 5506 5506 5508 5510 5515 5522 5530 5539 5546 5553 5559 5567 5575 5584 5592 5601 5611 5621 5630 5640 5649 5658 5666 5675 5683 5690 5697 5703 5709 5715 5721 5725 5729 5733 5737 5739 5742 5744 5746 5747 5748 5748 5748 5748 5747 5746 5744
5493 5496 5497 5499 5501 5504 5507 5516 5524 5530 5537 5544 5550 5557 5564 5573 5582 5591 5600 5610 5620 5629 5638 5647 5656 5664 5672 5680 5687 5693 5700 5706 5711 5716 5720 5724 5728 5731 5734 5736 5737 5739 5740 5740 5740 5740 5739 5738 5736
5485 5488 5490 5492 5494 5496 5498 5508 5516 5520 5526 5533 5540 5547 5555 5562 5570 5580 5589 5598 5607 5617 5626 5635 5645 5653 5662 5670 5677 5683 5690 5696 5701 5707 5711 5715 5719 5722 5725 5727 5729 5731 5731 5732 5732 5732 5731 5730 5728